Regional Weather Roundup
Issued by NWS

Home | Current Version | Previous Version | Graphics & Text | Print | Product List | Glossary On
Versions: 1 2 3 4 5 6 7 8 9 10 11 12 13 14 15 16 17 18 19 20 21 22 23 24 25 26 27 28 29 30 31 32 33 34 35 36 37 38 39 40 41 42 43 44 45 46 47 48 49 50
000
ASUS43 KDMX 170501
RWRIA

WEATHER ROUNDUP FOR IOWA
NATIONAL WEATHER SERVICE DES MOINES IA
1200 AM CDT TUE OCT 17 2017

NOTE: "FAIR" INDICATES FEW OR NO CLOUDS BELOW 12,000 FEET WITH NO
SIGNIFICANT WEATHER AND/OR OBSTRUCTIONS TO VISIBILITY.

* - THESE STATIONS ARE NOT NWS STATIONS...THUS NOT UNDER NWS
QUALITY CONTROL.  THEY ALSO DO NOT REPORT WEATHER SUCH
AS PRECIPITATION OR FOG.

IAZ001>003-012>014-020>022-031>034-043>046-170600-
   NORTHWEST IOWA

CITY           SKY/WX    TMP DP  RH WIND       PRES   REMARKS
CARROLL *      CLEAR     59  43  55 SW16      30.08F
CHEROKEE *     CLOUDY    51  41  68 S7        30.04S
DENISON *      PTCLDY    55  41  58 S10       30.11S
LE MARS *      PTCLDY    54  41  62 SW3       30.03S
ORANGE CITY *  PTCLDY    52  43  71 W5        30.04S
SHELDON *      CLEAR     54  39  58 SW8       30.02S
SIOUX CITY     PTCLDY    58  40  51 S6        30.04F
SPENCER        CLEAR     55  39  54 SW8       30.03S
STORM LAKE *   PTCLDY    57  39  51 SW14G21   30.05S
$$

IAZ055>058-069>071-079>083-090>094-170600-
   SOUTHWEST IOWA

CITY           SKY/WX    TMP DP  RH WIND       PRES   REMARKS
ATLANTIC *     MOCLDY    54  41  62 S9        30.13F
AUDUBON *      PTCLDY    55  41  58 S8        30.13S
CLARINDA *     PTCLDY    52  43  71 S8        30.19F
COUNCIL BLFS * CLEAR     59  41  51 SW16G23   30.12S
CRESTON *      CLOUDY    52  41  66 SW13      30.18S
HARLAN  *      PTCLDY    52  41  66 S8        30.15S
LAMONI         CLEAR     53  41  63 SW13      30.19S
RED OAK *      PTCLDY    52  41  66 S6        30.15F
SHENANDOAH *   PTCLDY    54  41  62 SW6       30.16F
$$

IAZ047>049-059>061-072>074-084-170600-
   CENTRAL IOWA

CITY           SKY/WX    TMP DP  RH WIND       PRES   REMARKS
AMES           CLOUDY    53  43  68 S9        30.11F
ANKENY *       CLOUDY    55  41  58 S9        30.14F
BOONE *        CLOUDY    55  41  58 SW13G18   30.10F
CHARITON *     PTCLDY    52  41  66 S9        30.17S
DES MOINES     PTCLDY    54  41  61 S9        30.14S
GRINNELL*      CLOUDY    51  39  64 S7        30.16F
KNOXVILLE *    CLOUDY    57  39  51 SW13      30.15S
MARSHALLTOWN   CLOUDY    56  40  55 S15       30.11F
NEWTON *       PTCLDY    55  41  58 SW13      30.15S
PELLA *        CLOUDY    53  40  61 SW6       30.18S
PERRY *          N/A     52  40  64 S6        30.11S
$$

IAZ004>006-015-016-023>025-035-036-170600-
   NORTH CENTRAL IOWA

CITY           SKY/WX    TMP DP  RH WIND       PRES   REMARKS
ALGONA *       CLEAR     50  41  71 S10       30.04S
CLARION *      CLEAR     52  41  66 S10G18    30.06F
ESTHERVILLE    CLEAR     54  40  59 SW9       30.01F
FORT DODGE *   CLEAR     54  40  59 S13       30.07F
MASON CITY     PTCLDY    54  39  57 SW14      30.06F
FOREST CITY *    N/A     55  37  50 SW9       30.04S
WEBSTER CITY * CLEAR     55  39  54 S13G20    30.06F
IOWA FALLS *     N/A     55  42  61 S14       30.09F
$$

IAZ007>011-017>019-026>030-037>042-050>054-066-170600-
   NORTHEAST IOWA

CITY           SKY/WX    TMP DP  RH WIND       PRES   REMARKS
CEDAR RAPIDS   CLOUDY    51  39  63 S9        30.15F
CHARLES CITY * PTCLDY    52  39  62 S9        30.07F
CLINTON *      CLOUDY    48  39  71 S7        30.18F
DECORAH *      CLEAR     55  37  50 S9G18     30.06S
DUBUQUE        CLOUDY    50  38  63 SW14      30.14F
MONTICELLO *   CLOUDY    50  39  66 S6        30.14F
OELWEIN *      CLOUDY    52  39  62 S9        30.11F
WATERLOO       PTCLDY    53  38  56 S14       30.09F
$$

IAZ064-065-067-068-078-170600-
   EAST CENTRAL IOWA

CITY           SKY/WX    TMP DP  RH WIND       PRES   REMARKS
DAVENPORT      CLEAR     52  38  58 SW8       30.21F
IOWA CITY      PTCLDY    51  39  63 S5        30.19F
MUSCATINE *    CLEAR     50  39  66 S7        30.19F
QUAD CITIES    CLEAR     54  36  50 SW8       30.19F
$$

IAZ062-063-075>077-085>089-095>099-170600-
   SOUTHEAST IOWA

CITY           SKY/WX    TMP DP  RH WIND       PRES   REMARKS
BURLINGTON     CLEAR     49  40  71 SW8       30.21F
FAIRFIELD *    CLEAR     50  37  62 S8        30.19F
FORT MADISON * CLEAR     54  39  58 SW7       30.22F
KEOKUK *       CLEAR     50  39  66 S8        30.22S
OSKALOOSA *      N/A     46  40  78 S8        30.18F
OTTUMWA        CLOUDY    52  39  61 S8        30.18F
WASHINGTON *   CLEAR     52  39  62 SW12      30.19F
$$

ABBREVIATIONS USED IN REMARKS
   TC - TEMPERATURES IN CELSIUS
  WCI - WIND CHILL INDEX
   HX - HEAT INDEX
  VSB - VISIBILITY
$$





USA.gov is the U.S. government's official web portal to all federal, state and local government web resources and services.